User: anonymous   Login
Location: Unspecified
(0.0000°N, 0.0000°E)
Time: 13:30:51
(UTC+00:00)
Language:

MUOS - Orbit

View from above orbital plane
View from above orbital plane
View from above satellite
View from above satellite

Ground track
Ground track

The orbit data is extracted from the following two-line orbital elements,

1 38093U 12009A   17112.84471600 0.00000000  00000-0  00000-0 0    00
2 38093   3.2800 338.1403 0050325 175.1995 184.8316  1.00270000    03
Epoch (UTC): 22 April 2017 20:16:23
Eccentricity: 0.0050325
inclination: 3.2800°
perigee height: 35574 km
apogee height: 35999 km
right ascension of ascending node: 338.1403°
argument of perigee: 175.1995°
revolutions per day: 1.00270000
mean anomaly at epoch: 184.8316°
orbit number at epoch: 0

The dashed part of the orbit path shows where the satellite is in the earth's shadow,  

DLR